Weather History for KHLG - June, 2013

Change the Weather History Date:

Wednesday, June 12, 2013

  Actual Average Record
Temperature  
Mean Temperature 75 °F 68 °F  
Max Temperature 83 °F 77 °F 88 °F (1949)
Min Temperature 66 °F 58 °F 46 °F (2006)
Degree Days  
Heating Degree Days 0 1  
Month to date heating degree days 19 28  
Since 1 June heating degree days 19 28  
Since 1 July heating degree days 5463 5577  
Cooling Degree Days 10    
Month to date cooling degree days 42  
Year to date cooling degree days 148  
Since 1 June cooling degree days 42  
Growing Degree Days 24 (Base 50)    
Moisture  
Dew Point 66 °F    
Average Humidity 75    
Maximum Humidity 87    
Minimum Humidity 62    
Precipitation  
Precipitation 0.02 in 0.16 in 1.63 in (1991)
Month to date precipitation 0.92 2.13  
Sea Level Pressure  
Sea Level Pressure 29.87 in    
Wind  
Wind Speed 6 mph (SW)    
Max Wind Speed 13 mph    
Max Gust Speed 17 mph    
Visibility 9 miles    
Events Rain , Thunderstorm    
T = Trace of Precipitation, MM = Missing Value Source: NWS Daily Summary

Daily Weather History Graph

Daily Weather History Graph

Search for Another Location

Airport or City:

Trip Planner

Search our weather history database for the weather conditions in past years. The results will help you decide how hot, cold, wet, or windy it might be!

Date:

Astronomy

Jun. 12, 2013 Rise Set
Actual Time 5:52 AM EDT 8:52 PM EDT
Civil Twilight 5:19 AM EDT 9:25 PM EDT
Nautical Twilight 4:38 AM EDT 10:07 PM EDT
Astronomical Twilight 3:49 AM EDT 10:55 PM EDT
Moon 9:30 AM EDT (6/12) 11:27 PM EDT (6/12)
Length of Visible Light 16h 05m
Length of Day
14h 59m
Waxing Crescent, 14% of the Moon is Illuminated
Jun 12
Waxing Crescent
Jun 16
First Quarter
Jun 23
Full
Jun 30
Last Quarter
Jul 8
New

Hourly Weather History & Observations

Time (EDT) Temp. Heat Index Dew Point Humidity Pressure Visibility Wind Dir Wind Speed Gust Speed Precip Events Conditions
12:53 AM 69.1 °F - 63.0 °F 81% 29.90 in 10.0 mi SW 4.6 mph - N/A   Overcast
1:53 AM 69.1 °F - 63.0 °F 81% 29.89 in 10.0 mi SW 6.9 mph - N/A   Mostly Cloudy
2:53 AM 70.0 °F - 63.0 °F 78% 29.88 in 10.0 mi WSW 8.1 mph - N/A   Partly Cloudy
3:53 AM 69.1 °F - 62.1 °F 78% 29.88 in 10.0 mi WSW 5.8 mph - N/A   Clear
4:53 AM 66.9 °F - 62.1 °F 84% 29.88 in 10.0 mi SW 6.9 mph - N/A   Clear
5:53 AM 66.0 °F - 62.1 °F 87% 29.89 in 10.0 mi SW 3.5 mph - N/A   Clear
6:53 AM 66.0 °F - 62.1 °F 87% 29.92 in 10.0 mi SSW 4.6 mph - N/A   Clear
7:53 AM 68.0 °F - 63.0 °F 84% 29.94 in 10.0 mi SW 5.8 mph - N/A   Partly Cloudy
8:53 AM 72.0 °F - 63.0 °F 73% 29.93 in 10.0 mi WSW 6.9 mph - N/A   Partly Cloudy
9:53 AM 75.0 °F - 64.9 °F 71% 29.91 in 10.0 mi WSW 6.9 mph - N/A   Clear
10:53 AM 75.9 °F - 66.0 °F 71% 29.92 in 10.0 mi West 4.6 mph - N/A   Clear
11:53 AM 77.0 °F - 64.9 °F 66% 29.93 in 10.0 mi West 5.8 mph - N/A   Clear
12:53 PM 80.1 °F 82.1 °F 66.0 °F 62% 29.92 in 10.0 mi WSW 6.9 mph - N/A   Partly Cloudy
1:53 PM 78.1 °F - 66.0 °F 66% 29.91 in 10.0 mi Variable 5.8 mph - N/A   Partly Cloudy
2:53 PM 78.1 °F - 66.0 °F 66% 29.89 in 10.0 mi SW 6.9 mph - N/A   Scattered Clouds
3:53 PM 80.1 °F 82.3 °F 66.9 °F 64% 29.86 in 10.0 mi WSW 6.9 mph - N/A   Clear
4:53 PM 81.0 °F 83.8 °F 68.0 °F 65% 29.86 in 10.0 mi West 8.1 mph - N/A   Clear
5:53 PM 82.0 °F 85.5 °F 69.1 °F 65% 29.86 in 10.0 mi WSW 4.6 mph - N/A   Partly Cloudy
6:53 PM 80.1 °F 83.2 °F 70.0 °F 71% 29.84 in 10.0 mi Calm Calm - N/A   Scattered Clouds
7:53 PM 79.0 °F - 70.0 °F 74% 29.83 in 10.0 mi SSW 4.6 mph - N/A   Clear
8:53 PM 77.0 °F - 70.0 °F 79% 29.83 in 10.0 mi Calm Calm - N/A   Clear
9:53 PM 75.0 °F - 71.1 °F 87% 29.78 in 7.0 mi ESE 6.9 mph - 0.02 in Rain Light Rain
10:53 PM 73.0 °F - 71.1 °F 93% 29.81 in 3.0 mi West 6.9 mph - 0.00 in Rain Light Rain
11:48 PM 73.4 °F - 71.6 °F 94% 29.77 in 4.0 mi ESE 3.5 mph - 0.00 in Rain , Thunderstorm Light Thunderstorms and Rain
11:53 PM 73.9 °F - 72.0 °F 93% 29.75 in 4.0 mi SSE 4.6 mph - 0.00 in Rain , Thunderstorm Light Thunderstorms and Rain